EW3845 Weather Reports


time (UTC)temp
C
wind
direction
speed
KPH
gust
KPH
rain 1hr
cm
rain 24hr
cm
rain mn
cm
humidity
%
barometer
mb
20260510064527 12 22 0.0 0.0 0.00 0.00 0.00 87 1013.0
20260510063024 11 21 0.0 0.0 0.00 0.00 0.00 86 1012.9
20260510061523 11 21 0.0 0.0 0.00 0.00 0.00 87 1013.0
20260510060022 11 21 0.0 0.0 0.00 0.00 0.00 87 1013.0
20260510054522 11 21 0.0 0.0 0.00 0.00 0.00 87 1012.9
20260510053025 10 21 0.0 0.0 0.00 0.00 0.00 87 1012.9
20260510051521 10 21 0.0 0.0 0.00 0.00 0.00 87 1012.9
20260510050026 10 21 0.0 0.0 0.00 0.00 0.00 86 1012.9
20260510044529 10 21 0.0 0.0 0.00 0.00 0.00 86 1012.9
20260510043018 10 21 0.0 0.0 0.00 0.00 0.00 85 1013.1
20260510041518 10 21 0.0 0.0 0.00 0.00 0.00 85 1013.1
20260510040014 10 21 0.0 0.0 0.00 0.00 0.00 84 1013.1
20260510034511 10 21 0.0 0.0 0.00 0.00 0.00 83 1013.1
20260510033010 11 21 0.0 0.0 0.00 0.00 0.00 83 1013.1
20260510031508 11 21 0.0 0.0 0.00 0.00 0.00 82 1013.1
20260510030006 11 21 0.0 0.0 0.00 0.00 0.00 82 1013.3
20260510024505 11 21 0.0 0.0 0.00 0.00 0.00 81 1013.4
20260510023003 11 21 0.0 0.0 0.00 0.00 0.00 81 1013.3
20260510021506 11 21 0.0 0.0 0.00 0.00 0.00 81 1013.5
20260510020002 12 21 0.0 0.0 0.00 0.00 0.00 81 1013.6
20260510014601 12 21 0.0 0.0 0.00 0.00 0.00 81 1013.6
20260510013103 11 21 0.0 0.0 0.00 0.00 0.00 80 1013.6
20260510011602 11 21 0.0 0.0 0.00 0.00 0.00 81 1013.6
20260510010105 11 21 0.0 0.0 0.00 0.00 0.00 80 1013.6
20260510004556 11 21 0.0 0.0 0.00 0.00 0.00 80 1013.7
20260510003056 11 21 0.0 0.0 0.00 0.00 0.00 79 1013.8
20260510001554 11 21 0.0 0.0 0.00 0.00 0.00 78 1013.9
20260510000104 12 21 0.0 0.0 0.00 0.00 0.00 77 1014.0
20260509234557 12 21 0.0 0.0 0.00 0.00 0.00 76 1014.3
20260509233049 12 21 0.0 0.0 0.00 0.00 0.00 75 1014.3
20260509231547 12 21 0.0 0.0 0.00 0.00 0.00 75 1014.4
20260509230042 12 21 0.0 0.0 0.00 0.00 0.00 74 1014.5
20260509224540 13 21 0.0 0.0 0.00 0.00 0.00 73 1014.6
20260509223042 13 21 0.0 0.0 0.00 0.00 0.00 73 1014.6
20260509221540 13 21 0.0 0.0 0.00 0.00 0.00 72 1014.7
20260509220036 13 21 0.0 0.0 0.00 0.00 0.00 72 1014.8
20260509214535 14 21 0.0 0.0 0.00 0.00 0.00 71 1014.8
20260509213038 14 21 0.0 0.0 0.00 0.00 0.00 70 1014.8
20260509211533 14 21 0.0 0.0 0.00 0.00 0.00 70 1014.9
20260509210040 14 21 0.0 0.0 0.00 0.00 0.00 70 1015.0
20260509204539 15 22 0.0 0.0 0.00 0.00 0.00 70 1015.0
20260509203032 15 22 0.0 0.0 0.00 0.00 0.00 70 1015.1
20260509201532 15 22 0.0 0.0 0.00 0.00 0.00 69 1015.0
20260509200034 15 22 0.0 0.0 0.00 0.00 0.00 68 1015.0
20260509194534 15 22 0.0 0.0 0.00 0.00 0.00 68 1014.9
20260509193030 16 22 0.0 0.0 0.00 0.00 0.00 68 1014.9
20260509191529 16 22 0.0 0.0 0.00 0.00 0.00 67 1014.9
20260509190032 16 22 0.0 0.0 0.00 0.00 0.00 66 1014.7
20260509184541 17 22 0.0 0.0 0.00 0.00 0.00 63 1014.6
20260509183031 17 22 0.0 0.0 0.00 0.00 0.00 61 1014.4
20260509181527 18 22 0.0 0.0 0.00 0.00 0.00 60 1014.3
20260509180026 18 23 0.0 0.0 0.00 0.00 0.00 59 1014.4
20260509174533 19 21 0.0 0.0 0.00 0.00 0.00 58 1014.3
20260509173025 19 15 0.0 0.0 0.00 0.00 0.00 58 1014.2
20260509171531 19 15 0.0 0.0 0.00 0.00 0.00 56 1014.1
20260509170024 20 38 0.0 0.0 0.00 0.00 0.00 54 1014.1
20260509164523 20 38 0.0 0.0 0.00 0.00 0.00 50 1014.2
20260509163024 20 38 0.0 0.0 0.00 0.00 0.00 52 1014.5
20260509161523 20 38 0.0 0.0 0.00 0.00 0.00 51 1014.6
20260509160021 20 38 0.0 0.0 0.00 0.00 0.00 53 1014.5
20260509154519 20 38 0.0 0.0 0.00 0.00 0.00 50 1014.6
20260509153030 20 39 0.0 0.0 0.00 0.00 0.00 49 1014.7
20260509151517 20 37 0.0 0.0 0.00 0.00 0.00 50 1014.9
20260509150026 20 37 0.0 0.0 0.00 0.00 0.00 50 1015.0
20260509144526 20 35 0.0 0.0 0.00 0.00 0.00 49 1015.0
20260509143018 21 325 0.0 0.0 0.00 0.00 0.00 50 1015.2
20260509141516 21 33 0.0 0.0 0.00 0.00 0.00 48 1015.3
20260509140008 21 40 0.0 0.0 0.00 0.00 0.00 50 1015.5
20260509135606 22 40 0.0 0.0 0.00 0.00 0.00 48 1015.6
20260509135054 22 40 0.0 0.0 0.00 0.00 0.00 49 1015.8
20260509134647 21 40 0.0 0.0 0.00 0.00 0.00 49 1015.7
20260509134546 22 40 0.0 0.0 0.00 0.00 0.00 49 1015.7
20260509134051 22 42 0.0 0.0 0.00 0.00 0.00 50 1015.8
20260509133542 22 42 0.0 0.0 0.00 0.00 0.00 51 1015.9
20260509133153 21 27 0.0 0.0 0.00 0.00 0.00 49 1015.8
20260509133052 22 26 0.0 0.0 0.00 0.00 0.00 49 1015.9
20260509131547 22 35 0.0 0.0 0.00 0.00 0.00 49 1015.9
20260509130055 22 315 0.0 0.0 0.00 0.00 0.00 51 1016.1
20260509124543 22 33 0.0 0.0 0.00 0.00 0.00 53 1016.3
20260509123040 21 33 0.0 0.0 0.00 0.00 0.00 53 1016.4
20260509121544 21 24 0.0 0.0 0.00 0.00 0.00 53 1016.6
20260509120035 21 27 0.0 0.0 0.00 0.00 0.00 55 1016.7
20260509114537 20 27 0.0 0.0 0.00 0.00 0.00 57 1016.7
20260509113037 19 28 0.0 0.0 0.00 0.00 0.00 56 1017.0
20260509111530 20 29 0.0 0.0 0.00 0.00 0.00 56 1017.2
20260509110032 21 31 0.0 0.0 0.00 0.00 0.00 55 1017.4
20260509104538 21 51 0.0 0.0 0.00 0.00 0.00 55 1017.5
20260509103024 20 16 0.0 0.0 0.00 0.00 0.00 58 1017.6
20260509101531 20 12 0.0 0.0 0.00 0.00 0.00 62 1017.6
20260509100017 19 29 0.0 0.0 0.00 0.00 0.00 65 1017.6
20260509094526 18 25 0.0 0.0 0.00 0.00 0.00 66 1017.6
20260509093012 18 36 0.0 0.0 0.00 0.00 0.00 66 1017.7
20260509091510 18 30 0.0 0.0 0.00 0.00 0.00 68 1017.8
20260509090007 17 32 0.0 0.0 0.00 0.00 0.00 71 1017.8
20260509084503 17 61 0.0 0.0 0.00 0.00 0.00 74 1018.0
20260509083103 16 44 0.0 0.0 0.00 0.00 0.00 78 1018.0
20260509081606 15 54 0.0 0.0 0.00 0.00 0.00 80 1018.0
20260509080050 13 34 0.0 0.0 0.00 0.00 0.00 84 1018.1
20260509080005 13 34 0.0 0.0 0.00 0.00 0.00 84 1018.0
20260509075602 13 35 0.0 0.0 0.00 0.00 0.00 84 1018.0
20260509075047 13 154 0.0 0.0 0.00 0.00 0.00 85 1018.0
20260509074600 13 19 0.0 0.0 0.00 0.00 0.00 85 1018.0
20260509074050 12 17 0.0 0.0 0.00 0.00 0.00 85 1018.1
20260509073606 12 172 0.0 0.0 0.00 0.00 0.00 85 1018.1
20260509073050 12 67 0.0 0.0 0.00 0.00 0.00 86 1018.0
20260509071545 11 46 0.0 0.0 0.00 0.00 0.00 87 1018.2
20260509070040 11 35 0.0 0.0 0.00 0.00 0.00 88 1018.1